Year,Month,Day,Hour,Minute,Value (Times are PST for temperature in C)
2013,05,06,00,00,15.20
2013,05,06,00,01,15.10
2013,05,06,00,02,15.10
2013,05,06,00,03,15.10
2013,05,06,00,04,15.00
2013,05,06,00,05,15.00
2013,05,06,00,06,15.00
2013,05,06,00,07,15.00
2013,05,06,00,08,15.00
2013,05,06,00,09,15.00
2013,05,06,00,10,15.00
2013,05,06,00,11,15.00
2013,05,06,00,12,15.00
2013,05,06,00,13,15.00
2013,05,06,00,14,15.00
2013,05,06,00,15,15.00
2013,05,06,00,16,15.00
2013,05,06,00,17,15.00
2013,05,06,00,18,14.90
2013,05,06,00,19,14.90
2013,05,06,00,20,14.90
2013,05,06,00,21,14.90
2013,05,06,00,22,14.90
2013,05,06,00,23,14.80
2013,05,06,00,24,14.80
2013,05,06,00,25,14.80
2013,05,06,00,26,14.70
2013,05,06,00,27,14.70
2013,05,06,00,28,14.70
2013,05,06,00,29,14.80
2013,05,06,00,30,14.80
2013,05,06,00,31,14.80
2013,05,06,00,32,14.80
2013,05,06,00,33,14.80
2013,05,06,00,34,14.80
2013,05,06,00,35,14.80
2013,05,06,00,36,14.70
2013,05,06,00,37,14.70
2013,05,06,00,38,14.60
2013,05,06,00,39,14.60
2013,05,06,00,40,14.50
2013,05,06,00,41,14.50
2013,05,06,00,42,14.40
2013,05,06,00,43,14.40
2013,05,06,00,44,14.40
2013,05,06,00,45,14.40
2013,05,06,00,46,14.40
2013,05,06,00,47,14.40
2013,05,06,00,48,14.40
2013,05,06,00,49,14.40
2013,05,06,00,50,14.50
2013,05,06,00,51,14.60
2013,05,06,00,52,14.60
2013,05,06,00,53,14.60
2013,05,06,00,54,14.60
2013,05,06,00,55,14.60
2013,05,06,00,56,14.70
2013,05,06,00,57,14.70
2013,05,06,00,58,14.70
2013,05,06,00,59,14.70
2013,05,06,01,00,14.70
2013,05,06,01,01,14.70
2013,05,06,01,02,14.70
2013,05,06,01,03,14.70
2013,05,06,01,04,14.60
2013,05,06,01,05,14.50
2013,05,06,01,06,14.50
2013,05,06,01,07,14.40
2013,05,06,01,08,14.40
2013,05,06,01,09,14.30
2013,05,06,01,10,14.40
2013,05,06,01,11,14.40
2013,05,06,01,12,14.40
2013,05,06,01,13,14.40
2013,05,06,01,14,14.40
2013,05,06,01,15,14.50
2013,05,06,01,16,14.50
2013,05,06,01,17,14.60
2013,05,06,01,18,14.70
2013,05,06,01,19,14.70
2013,05,06,01,20,14.70
2013,05,06,01,21,14.70
2013,05,06,01,22,14.70
2013,05,06,01,23,14.60
2013,05,06,01,24,14.60
2013,05,06,01,25,14.50
2013,05,06,01,26,14.50
2013,05,06,01,27,14.40
2013,05,06,01,28,14.40
2013,05,06,01,29,14.30
2013,05,06,01,30,14.30
2013,05,06,01,31,14.30
2013,05,06,01,32,14.30
2013,05,06,01,33,14.30
2013,05,06,01,34,14.40
2013,05,06,01,35,14.40
2013,05,06,01,36,14.50
2013,05,06,01,37,14.60
2013,05,06,01,38,14.60
2013,05,06,01,39,14.70
2013,05,06,01,40,14.70
2013,05,06,01,41,14.70
2013,05,06,01,42,14.70
2013,05,06,01,43,14.70
2013,05,06,01,44,14.60
2013,05,06,01,45,14.60
2013,05,06,01,46,14.60
2013,05,06,01,47,14.60
2013,05,06,01,48,14.60
2013,05,06,01,49,14.60
2013,05,06,01,50,14.60
2013,05,06,01,51,14.60
2013,05,06,01,52,14.70
2013,05,06,01,53,14.70
2013,05,06,01,54,14.70
2013,05,06,01,55,14.60
2013,05,06,01,56,14.60
2013,05,06,01,57,14.50
2013,05,06,01,58,14.50
2013,05,06,01,59,14.40
2013,05,06,02,00,14.30
2013,05,06,02,01,14.30
2013,05,06,02,02,14.30
2013,05,06,02,03,14.20
2013,05,06,02,04,14.20
2013,05,06,02,05,14.10
2013,05,06,02,06,14.10
2013,05,06,02,07,14.10
2013,05,06,02,08,14.00
2013,05,06,02,09,14.00
2013,05,06,02,10,13.90
2013,05,06,02,11,13.90
2013,05,06,02,12,13.90
2013,05,06,02,13,14.00
2013,05,06,02,14,14.00
2013,05,06,02,15,14.00
2013,05,06,02,16,14.00
2013,05,06,02,17,14.00
2013,05,06,02,18,13.90
2013,05,06,02,19,13.90
2013,05,06,02,20,13.80
2013,05,06,02,21,13.70
2013,05,06,02,22,13.60
2013,05,06,02,23,13.50
2013,05,06,02,24,13.40
2013,05,06,02,25,13.40
2013,05,06,02,26,13.30
2013,05,06,02,27,13.30
2013,05,06,02,28,13.30
2013,05,06,02,29,13.30
2013,05,06,02,30,13.30
2013,05,06,02,31,13.30
2013,05,06,02,32,13.40
2013,05,06,02,33,13.40
2013,05,06,02,34,13.50
2013,05,06,02,35,13.60
2013,05,06,02,36,13.60
2013,05,06,02,37,13.60
2013,05,06,02,38,13.70
2013,05,06,02,39,13.60
2013,05,06,02,40,13.60
2013,05,06,02,41,13.60
2013,05,06,02,42,13.50
2013,05,06,02,43,13.50
2013,05,06,02,44,13.40
2013,05,06,02,45,13.40
2013,05,06,02,46,13.40
2013,05,06,02,47,13.40
2013,05,06,02,48,13.40
2013,05,06,02,49,13.30
2013,05,06,02,50,13.30
2013,05,06,02,51,13.30
2013,05,06,02,52,13.40
2013,05,06,02,53,13.40
2013,05,06,02,54,13.50
2013,05,06,02,55,13.50
2013,05,06,02,56,13.60
2013,05,06,02,57,13.50
2013,05,06,02,58,13.50
2013,05,06,02,59,13.50
2013,05,06,03,00,13.40
2013,05,06,03,01,13.40
2013,05,06,03,02,13.30
2013,05,06,03,03,13.20
2013,05,06,03,04,13.10
2013,05,06,03,05,13.10
2013,05,06,03,06,13.10
2013,05,06,03,07,13.00
2013,05,06,03,08,13.00
2013,05,06,03,09,12.90
2013,05,06,03,10,12.90
2013,05,06,03,11,12.90
2013,05,06,03,12,12.90
2013,05,06,03,13,12.90
2013,05,06,03,14,12.90
2013,05,06,03,15,12.90
2013,05,06,03,16,12.80
2013,05,06,03,17,12.80
2013,05,06,03,18,12.80
2013,05,06,03,19,12.80
2013,05,06,03,20,12.80
2013,05,06,03,21,12.80
2013,05,06,03,22,12.80
2013,05,06,03,23,12.90
2013,05,06,03,24,12.90
2013,05,06,03,25,12.90
2013,05,06,03,26,12.90
2013,05,06,03,27,12.90
2013,05,06,03,28,12.80
2013,05,06,03,29,12.80
2013,05,06,03,30,12.80
2013,05,06,03,31,12.80
2013,05,06,03,32,12.80
2013,05,06,03,33,12.80
2013,05,06,03,34,12.80
2013,05,06,03,35,12.80
2013,05,06,03,36,12.80
2013,05,06,03,37,12.90
2013,05,06,03,38,12.90
2013,05,06,03,39,12.90
2013,05,06,03,40,12.90
2013,05,06,03,41,12.90
2013,05,06,03,42,12.90
2013,05,06,03,43,12.90
2013,05,06,03,44,12.90
2013,05,06,03,45,13.00
2013,05,06,03,46,13.00
2013,05,06,03,47,13.00
2013,05,06,03,48,13.10
2013,05,06,03,49,13.10
2013,05,06,03,50,13.00
2013,05,06,03,51,13.00
2013,05,06,03,52,13.10
2013,05,06,03,53,13.10
2013,05,06,03,54,13.10
2013,05,06,03,55,13.10
2013,05,06,03,56,13.20
2013,05,06,03,57,13.30
2013,05,06,03,58,13.30
2013,05,06,03,59,13.30
2013,05,06,04,00,13.40
2013,05,06,04,01,13.40
2013,05,06,04,02,13.40
2013,05,06,04,03,13.50
2013,05,06,04,04,13.50
2013,05,06,04,05,13.60
2013,05,06,04,06,13.60
2013,05,06,04,07,13.60
2013,05,06,04,08,13.50
2013,05,06,04,09,13.50
2013,05,06,04,10,13.50
2013,05,06,04,11,13.40
2013,05,06,04,12,13.40
2013,05,06,04,13,13.40
2013,05,06,04,14,13.40
2013,05,06,04,15,13.40
2013,05,06,04,16,13.40
2013,05,06,04,17,13.40
2013,05,06,04,18,13.40
2013,05,06,04,19,13.50
2013,05,06,04,20,13.50
2013,05,06,04,21,13.60
2013,05,06,04,22,13.60
2013,05,06,04,23,13.60
2013,05,06,04,24,13.60
2013,05,06,04,25,13.70
2013,05,06,04,26,13.70
2013,05,06,04,27,13.80
2013,05,06,04,28,13.80
2013,05,06,04,29,13.80
2013,05,06,04,30,13.80
2013,05,06,04,31,13.80
2013,05,06,04,32,13.80
2013,05,06,04,33,13.80
2013,05,06,04,34,13.80
2013,05,06,04,35,13.80
2013,05,06,04,36,13.90
2013,05,06,04,37,13.90
2013,05,06,04,38,13.90
2013,05,06,04,39,13.90
2013,05,06,04,40,13.90
2013,05,06,04,41,14.00
2013,05,06,04,42,14.00
2013,05,06,04,43,14.10
2013,05,06,04,44,14.10
2013,05,06,04,45,14.20
2013,05,06,04,46,14.20
2013,05,06,04,47,14.20
2013,05,06,04,48,14.20
2013,05,06,04,49,14.20
2013,05,06,04,50,14.20
2013,05,06,04,51,14.30
2013,05,06,04,52,14.30
2013,05,06,04,53,14.30
2013,05,06,04,54,14.30
2013,05,06,04,55,14.30
2013,05,06,04,56,14.30
2013,05,06,04,57,14.30
2013,05,06,04,58,14.30
2013,05,06,04,59,14.30
2013,05,06,05,00,14.30
2013,05,06,05,01,14.30
2013,05,06,05,02,14.30
2013,05,06,05,03,14.30
2013,05,06,05,04,14.30
2013,05,06,05,05,14.30
2013,05,06,05,06,14.30
2013,05,06,05,07,14.30
2013,05,06,05,08,14.30
2013,05,06,05,09,14.30
2013,05,06,05,10,14.30
2013,05,06,05,11,14.20
2013,05,06,05,12,14.20
2013,05,06,05,13,14.20
2013,05,06,05,14,14.10
2013,05,06,05,15,14.10
2013,05,06,05,16,14.10
2013,05,06,05,17,14.00
2013,05,06,05,18,13.90
2013,05,06,05,19,13.90
2013,05,06,05,20,13.80
2013,05,06,05,21,13.80
2013,05,06,05,22,13.80
2013,05,06,05,23,13.80
2013,05,06,05,24,13.70
2013,05,06,05,25,13.70
2013,05,06,05,26,13.70
2013,05,06,05,27,13.60
2013,05,06,05,28,13.60
2013,05,06,05,29,13.60
2013,05,06,05,30,13.60
2013,05,06,05,31,13.60
2013,05,06,05,32,13.60
2013,05,06,05,33,13.60
2013,05,06,05,34,13.60
2013,05,06,05,35,13.60
2013,05,06,05,36,13.70
2013,05,06,05,37,13.70
2013,05,06,05,38,13.70
2013,05,06,05,39,13.70
2013,05,06,05,40,13.80
2013,05,06,05,41,13.80
2013,05,06,05,42,13.80
2013,05,06,05,43,13.80
2013,05,06,05,44,13.80
2013,05,06,05,45,13.80
2013,05,06,05,46,13.80
2013,05,06,05,47,13.80
2013,05,06,05,48,13.70
2013,05,06,05,49,13.70
2013,05,06,05,50,13.70
2013,05,06,05,51,13.70
2013,05,06,05,52,13.70
2013,05,06,05,53,13.60
2013,05,06,05,54,13.60
2013,05,06,05,55,13.60
2013,05,06,05,56,13.60
2013,05,06,05,57,13.60
2013,05,06,05,58,13.60
2013,05,06,05,59,13.60
2013,05,06,06,00,13.60
2013,05,06,06,01,13.60
2013,05,06,06,02,13.70
2013,05,06,06,03,13.70
2013,05,06,06,04,13.70
2013,05,06,06,05,13.80
2013,05,06,06,06,13.80
2013,05,06,06,07,13.80
2013,05,06,06,08,13.80
2013,05,06,06,09,13.80
2013,05,06,06,10,13.80
2013,05,06,06,11,13.80
2013,05,06,06,12,13.80
2013,05,06,06,13,13.80
2013,05,06,06,14,13.70
2013,05,06,06,15,13.70
2013,05,06,06,16,13.70
2013,05,06,06,17,13.70
2013,05,06,06,18,13.70
2013,05,06,06,19,13.70
2013,05,06,06,20,13.70
2013,05,06,06,21,13.70
2013,05,06,06,22,13.70
2013,05,06,06,23,13.70
2013,05,06,06,24,13.70
2013,05,06,06,25,13.70
2013,05,06,06,26,13.70
2013,05,06,06,27,13.70
2013,05,06,06,28,13.70
2013,05,06,06,29,13.70
2013,05,06,06,30,13.70
2013,05,06,06,31,13.70
2013,05,06,06,32,13.70
2013,05,06,06,33,13.60
2013,05,06,06,34,13.60
2013,05,06,06,35,13.50
2013,05,06,06,36,13.50
2013,05,06,06,37,13.40
2013,05,06,06,38,13.40
2013,05,06,06,39,13.40
2013,05,06,06,40,13.40
2013,05,06,06,41,13.40
2013,05,06,06,42,13.40
2013,05,06,06,43,13.40
2013,05,06,06,44,13.40
2013,05,06,06,45,13.50
2013,05,06,06,46,13.50
2013,05,06,06,47,13.60
2013,05,06,06,48,13.60
2013,05,06,06,49,13.60
2013,05,06,06,50,13.70
2013,05,06,06,51,13.80
2013,05,06,06,52,13.80
2013,05,06,06,53,13.90
2013,05,06,06,54,14.10
2013,05,06,06,55,14.10
2013,05,06,06,56,14.20
2013,05,06,06,57,14.30
2013,05,06,06,58,14.30
2013,05,06,06,59,14.40
2013,05,06,07,00,14.40
2013,05,06,07,01,14.50
2013,05,06,07,02,14.50
2013,05,06,07,03,14.50
2013,05,06,07,04,14.50
2013,05,06,07,05,14.50
2013,05,06,07,06,14.50
2013,05,06,07,07,14.50
2013,05,06,07,08,14.40
2013,05,06,07,09,14.40
2013,05,06,07,10,14.50
2013,05,06,07,11,14.40
2013,05,06,07,12,14.40
2013,05,06,07,13,14.50
2013,05,06,07,14,14.50
2013,05,06,07,15,14.50
2013,05,06,07,16,14.50
2013,05,06,07,17,14.50
2013,05,06,07,18,14.60
2013,05,06,07,19,14.60
2013,05,06,07,20,14.70
2013,05,06,07,21,14.70
2013,05,06,07,22,14.80
2013,05,06,07,23,14.90
2013,05,06,07,24,15.00
2013,05,06,07,25,15.10
2013,05,06,07,26,15.20
2013,05,06,07,27,15.40
2013,05,06,07,28,15.50
2013,05,06,07,29,15.70
2013,05,06,07,30,15.70
2013,05,06,07,31,15.80
2013,05,06,07,32,15.80
2013,05,06,07,33,15.70
2013,05,06,07,34,15.60
2013,05,06,07,35,15.50
2013,05,06,07,36,15.40
2013,05,06,07,37,15.30
2013,05,06,07,38,15.30
2013,05,06,07,39,15.30
2013,05,06,07,40,15.30
2013,05,06,07,41,15.30
2013,05,06,07,42,15.30
2013,05,06,07,43,15.30
2013,05,06,07,44,15.40
2013,05,06,07,45,15.40
2013,05,06,07,46,15.50
2013,05,06,07,47,15.60
2013,05,06,07,48,15.60
2013,05,06,07,49,15.70
2013,05,06,07,50,15.80
2013,05,06,07,51,15.80
2013,05,06,07,52,15.90
2013,05,06,07,53,16.00
2013,05,06,07,54,16.10
2013,05,06,07,55,16.20
2013,05,06,07,56,16.30
2013,05,06,07,57,16.30
2013,05,06,07,58,16.30
2013,05,06,07,59,16.30
2013,05,06,08,00,16.30
2013,05,06,08,01,16.30
2013,05,06,08,02,16.30
2013,05,06,08,03,16.30
2013,05,06,08,04,16.30
2013,05,06,08,05,16.30
2013,05,06,08,06,16.30
2013,05,06,08,07,16.40
2013,05,06,08,08,16.30
2013,05,06,08,09,16.30
2013,05,06,08,10,16.30
2013,05,06,08,11,16.30
2013,05,06,08,12,16.30
2013,05,06,08,13,16.40
2013,05,06,08,14,16.40
2013,05,06,08,15,16.50
2013,05,06,08,16,16.50
2013,05,06,08,17,16.60
2013,05,06,08,18,16.60
2013,05,06,08,19,16.80
2013,05,06,08,20,16.90
2013,05,06,08,21,17.00
2013,05,06,08,22,17.10
2013,05,06,08,23,17.20
2013,05,06,08,24,17.20
2013,05,06,08,25,17.30
2013,05,06,08,26,17.30
2013,05,06,08,27,17.40
2013,05,06,08,28,17.40
2013,05,06,08,29,17.50
2013,05,06,08,30,17.50
2013,05,06,08,31,17.60
2013,05,06,08,32,17.70
2013,05,06,08,33,17.80
2013,05,06,08,34,17.80
2013,05,06,08,35,17.90
2013,05,06,08,36,18.00
2013,05,06,08,37,18.10
2013,05,06,08,38,18.20
2013,05,06,08,39,18.30
2013,05,06,08,40,18.40
2013,05,06,08,41,18.40
2013,05,06,08,42,18.40
2013,05,06,08,43,18.40
2013,05,06,08,44,18.40
2013,05,06,08,45,18.40
2013,05,06,08,46,18.40
2013,05,06,08,47,18.50
2013,05,06,08,48,18.60
2013,05,06,08,49,18.60
2013,05,06,08,50,18.70
2013,05,06,08,51,18.70
2013,05,06,08,52,18.80
2013,05,06,08,53,18.80
2013,05,06,08,54,18.90
2013,05,06,08,55,19.00
2013,05,06,08,56,19.10
2013,05,06,08,57,19.10
2013,05,06,08,58,19.10
2013,05,06,08,59,19.10
2013,05,06,09,00,19.10
2013,05,06,09,01,19.10
2013,05,06,09,02,19.20
2013,05,06,09,03,19.20
2013,05,06,09,04,19.20
2013,05,06,09,05,19.20
2013,05,06,09,06,19.30
2013,05,06,09,07,19.30
2013,05,06,09,08,19.30
2013,05,06,09,09,19.30
2013,05,06,09,10,19.40
2013,05,06,09,11,19.40
2013,05,06,09,12,19.50
2013,05,06,09,13,19.50
2013,05,06,09,14,19.60
2013,05,06,09,15,19.60
2013,05,06,09,16,19.60
2013,05,06,09,17,19.50
2013,05,06,09,18,19.50
2013,05,06,09,19,19.50
2013,05,06,09,20,19.40
2013,05,06,09,21,19.30
2013,05,06,09,22,19.30
2013,05,06,09,23,19.40
2013,05,06,09,24,19.40
2013,05,06,09,25,19.50
2013,05,06,09,26,19.60
2013,05,06,09,27,19.60
2013,05,06,09,28,19.70
2013,05,06,09,29,19.70
2013,05,06,09,30,19.70
2013,05,06,09,31,19.70
2013,05,06,09,32,19.80
2013,05,06,09,33,19.80
2013,05,06,09,34,19.80
2013,05,06,09,35,19.80
2013,05,06,09,36,19.80
2013,05,06,09,37,19.80
2013,05,06,09,38,19.80
2013,05,06,09,39,19.80
2013,05,06,09,40,19.90
2013,05,06,09,41,20.00
2013,05,06,09,42,20.10
2013,05,06,09,43,20.10
2013,05,06,09,44,20.20
2013,05,06,09,45,20.10
2013,05,06,09,46,20.00
2013,05,06,09,47,19.90
2013,05,06,09,48,19.90
2013,05,06,09,49,19.90
2013,05,06,09,50,19.90
2013,05,06,09,51,20.00
2013,05,06,09,52,20.00
2013,05,06,09,53,20.00
2013,05,06,09,54,20.10
2013,05,06,09,55,20.20
2013,05,06,09,56,20.20
2013,05,06,09,57,20.30
2013,05,06,09,58,20.30
2013,05,06,09,59,20.30
2013,05,06,10,00,20.30
2013,05,06,10,01,20.30
2013,05,06,10,02,20.30
2013,05,06,10,03,20.30
2013,05,06,10,04,20.20
2013,05,06,10,05,20.20
2013,05,06,10,06,20.10
2013,05,06,10,07,20.10
2013,05,06,10,08,20.10
2013,05,06,10,09,20.10
2013,05,06,10,10,20.10
2013,05,06,10,11,20.10
2013,05,06,10,12,20.10
2013,05,06,10,13,20.10
2013,05,06,10,14,20.10
2013,05,06,10,15,20.20
2013,05,06,10,16,20.30
2013,05,06,10,17,20.30
2013,05,06,10,18,20.30
2013,05,06,10,19,20.30
2013,05,06,10,20,20.20
2013,05,06,10,21,20.30
2013,05,06,10,22,20.30
2013,05,06,10,23,20.40
2013,05,06,10,24,20.50
2013,05,06,10,25,20.50
2013,05,06,10,26,20.60
2013,05,06,10,27,20.60
2013,05,06,10,28,20.50
2013,05,06,10,29,20.50
2013,05,06,10,30,20.50
2013,05,06,10,31,20.50
2013,05,06,10,32,20.50
2013,05,06,10,33,20.60
2013,05,06,10,34,20.60
2013,05,06,10,35,20.60
2013,05,06,10,36,20.70
2013,05,06,10,37,20.90
2013,05,06,10,38,21.00
2013,05,06,10,39,21.00
2013,05,06,10,40,21.00
2013,05,06,10,41,20.90
2013,05,06,10,42,20.80
2013,05,06,10,43,20.90
2013,05,06,10,44,20.90
2013,05,06,10,45,20.90
2013,05,06,10,46,20.80
2013,05,06,10,47,20.80
2013,05,06,10,48,20.80
2013,05,06,10,49,20.80
2013,05,06,10,50,20.80
2013,05,06,10,51,20.90
2013,05,06,10,52,21.00
2013,05,06,10,53,21.10
2013,05,06,10,54,21.10
2013,05,06,10,55,21.10
2013,05,06,10,56,21.10
2013,05,06,10,57,21.20
2013,05,06,10,58,21.20
2013,05,06,10,59,21.30
2013,05,06,11,00,21.40
2013,05,06,11,01,21.50
2013,05,06,11,02,21.60
2013,05,06,11,03,21.70
2013,05,06,11,04,21.70
2013,05,06,11,05,21.80
2013,05,06,11,06,21.80
2013,05,06,11,07,21.80
2013,05,06,11,08,21.80
2013,05,06,11,09,21.80
2013,05,06,11,10,21.70
2013,05,06,11,11,21.70
2013,05,06,11,12,21.70
2013,05,06,11,13,21.70
2013,05,06,11,14,21.60
2013,05,06,11,15,21.60
2013,05,06,11,16,21.50
2013,05,06,11,17,21.40
2013,05,06,11,18,21.40
2013,05,06,11,19,21.40
2013,05,06,11,20,21.40
2013,05,06,11,21,21.40
2013,05,06,11,22,21.50
2013,05,06,11,23,21.50
2013,05,06,11,24,21.50
2013,05,06,11,25,21.60
2013,05,06,11,26,21.70
2013,05,06,11,27,21.80
2013,05,06,11,28,21.90
2013,05,06,11,29,22.00
2013,05,06,11,30,22.10
2013,05,06,11,31,22.20
2013,05,06,11,32,22.30
2013,05,06,11,33,22.50
2013,05,06,11,34,22.60
2013,05,06,11,35,22.70
2013,05,06,11,36,22.60
2013,05,06,11,37,22.50
2013,05,06,11,38,22.50
2013,05,06,11,39,22.60
2013,05,06,11,40,22.60
2013,05,06,11,41,22.70
2013,05,06,11,42,22.70
2013,05,06,11,43,22.80
2013,05,06,11,44,22.80
2013,05,06,11,45,22.80
2013,05,06,11,46,22.90
2013,05,06,11,47,22.90
2013,05,06,11,48,22.80
2013,05,06,11,49,22.70
2013,05,06,11,50,22.70
2013,05,06,11,51,22.70
2013,05,06,11,52,22.70
2013,05,06,11,53,22.70
2013,05,06,11,54,22.60
2013,05,06,11,55,22.60
2013,05,06,11,56,22.50
2013,05,06,11,57,22.40
2013,05,06,11,58,22.40
2013,05,06,11,59,22.50
2013,05,06,12,00,22.70
2013,05,06,12,01,22.80
2013,05,06,12,02,22.90
2013,05,06,12,03,23.00
2013,05,06,12,04,23.10
2013,05,06,12,05,23.20
2013,05,06,12,06,23.20
2013,05,06,12,07,23.20
2013,05,06,12,08,23.20
2013,05,06,12,09,23.10
2013,05,06,12,10,23.20
2013,05,06,12,11,23.20
2013,05,06,12,12,23.20
2013,05,06,12,13,23.20
2013,05,06,12,14,23.20
2013,05,06,12,15,23.20
2013,05,06,12,16,23.20
2013,05,06,12,17,23.20
2013,05,06,12,18,23.20
2013,05,06,12,19,23.20
2013,05,06,12,20,23.20
2013,05,06,12,21,23.20
2013,05,06,12,22,23.30
2013,05,06,12,23,23.30
2013,05,06,12,24,23.30
2013,05,06,12,25,23.30
2013,05,06,12,26,23.30
2013,05,06,12,27,23.30
2013,05,06,12,28,23.30
2013,05,06,12,29,23.30
2013,05,06,12,30,23.30
2013,05,06,12,31,23.30
2013,05,06,12,32,23.20
2013,05,06,12,33,23.20
2013,05,06,12,34,23.20
2013,05,06,12,35,23.30
2013,05,06,12,36,23.30
2013,05,06,12,37,23.40
2013,05,06,12,38,23.40
2013,05,06,12,39,23.30
2013,05,06,12,40,23.30
2013,05,06,12,41,23.40
2013,05,06,12,42,23.50
2013,05,06,12,43,23.60
2013,05,06,12,44,23.70
2013,05,06,12,45,23.80
2013,05,06,12,46,23.90
2013,05,06,12,47,24.00
2013,05,06,12,48,24.00
2013,05,06,12,49,24.00
2013,05,06,12,50,23.90
2013,05,06,12,51,23.90
2013,05,06,12,52,24.00
2013,05,06,12,53,24.10
2013,05,06,12,54,24.10
2013,05,06,12,55,24.10
2013,05,06,12,56,24.10
2013,05,06,12,57,24.00
2013,05,06,12,58,24.00
2013,05,06,12,59,24.00
2013,05,06,13,00,24.00
2013,05,06,13,01,24.00
2013,05,06,13,02,23.90
2013,05,06,13,03,23.90
2013,05,06,13,04,23.90
2013,05,06,13,05,24.00
2013,05,06,13,06,24.10
2013,05,06,13,07,24.10
2013,05,06,13,08,24.20
2013,05,06,13,09,24.20
2013,05,06,13,10,24.10
2013,05,06,13,11,24.10
2013,05,06,13,12,24.10
2013,05,06,13,13,24.10
2013,05,06,13,14,24.10
2013,05,06,13,15,24.10
2013,05,06,13,16,24.00
2013,05,06,13,17,24.00
2013,05,06,13,18,24.00
2013,05,06,13,19,24.10
2013,05,06,13,20,24.10
2013,05,06,13,21,24.20
2013,05,06,13,22,24.20
2013,05,06,13,23,24.20
2013,05,06,13,24,24.20
2013,05,06,13,25,24.20
2013,05,06,13,26,24.20
2013,05,06,13,27,24.20
2013,05,06,13,28,24.20
2013,05,06,13,29,24.20
2013,05,06,13,30,24.20
2013,05,06,13,31,24.20
2013,05,06,13,32,24.10
2013,05,06,13,33,24.20
2013,05,06,13,34,24.20
2013,05,06,13,35,24.20
2013,05,06,13,36,24.30
2013,05,06,13,37,24.30
2013,05,06,13,38,24.30
2013,05,06,13,39,24.40
2013,05,06,13,40,24.50
2013,05,06,13,41,24.50
2013,05,06,13,42,24.60
2013,05,06,13,43,24.60
2013,05,06,13,44,24.70
2013,05,06,13,45,24.70
2013,05,06,13,46,24.70
2013,05,06,13,47,24.80
2013,05,06,13,48,24.80
2013,05,06,13,49,24.60
2013,05,06,13,50,24.40
2013,05,06,13,51,24.30
2013,05,06,13,52,24.10
2013,05,06,13,53,23.90
2013,05,06,13,54,23.80
2013,05,06,13,55,23.90
2013,05,06,13,56,24.00
2013,05,06,13,57,24.10
2013,05,06,13,58,24.20
2013,05,06,13,59,24.40
2013,05,06,14,00,24.50
2013,05,06,14,01,24.60
2013,05,06,14,02,24.70
2013,05,06,14,03,24.60
2013,05,06,14,04,24.50
2013,05,06,14,05,24.40
2013,05,06,14,06,24.30
2013,05,06,14,07,24.20
2013,05,06,14,08,24.20
2013,05,06,14,09,24.10
2013,05,06,14,10,24.10
2013,05,06,14,11,24.20
2013,05,06,14,12,24.20
2013,05,06,14,13,24.30
2013,05,06,14,14,24.40
2013,05,06,14,15,24.50
2013,05,06,14,16,24.60
2013,05,06,14,17,24.70
2013,05,06,14,18,24.80
2013,05,06,14,19,24.80
2013,05,06,14,20,24.80
2013,05,06,14,21,24.80
2013,05,06,14,22,24.80
2013,05,06,14,23,24.80
2013,05,06,14,24,24.70
2013,05,06,14,25,24.60
2013,05,06,14,26,24.60
2013,05,06,14,27,24.60
2013,05,06,14,28,24.70
2013,05,06,14,29,24.80
2013,05,06,14,30,24.80
2013,05,06,14,31,24.90
2013,05,06,14,32,24.90
2013,05,06,14,33,24.90
2013,05,06,14,34,24.90
2013,05,06,14,35,24.90
2013,05,06,14,36,24.80
2013,05,06,14,37,24.70
2013,05,06,14,38,24.70
2013,05,06,14,39,24.60
2013,05,06,14,40,24.60
2013,05,06,14,41,24.60
2013,05,06,14,42,24.60
2013,05,06,14,43,24.60
2013,05,06,14,44,24.50
2013,05,06,14,45,24.40
2013,05,06,14,46,24.30
2013,05,06,14,47,24.30
2013,05,06,14,48,24.30
2013,05,06,14,49,24.20
2013,05,06,14,50,24.20
2013,05,06,14,51,24.20
2013,05,06,14,52,24.20
2013,05,06,14,53,24.20
2013,05,06,14,54,24.20
2013,05,06,14,55,24.30
2013,05,06,14,56,24.30
2013,05,06,14,57,24.30
2013,05,06,14,58,24.30
2013,05,06,14,59,24.30
2013,05,06,15,00,24.30
2013,05,06,15,01,24.40
2013,05,06,15,02,24.40
2013,05,06,15,03,24.50
2013,05,06,15,04,24.60
2013,05,06,15,05,24.80
2013,05,06,15,06,24.90
2013,05,06,15,07,24.90
2013,05,06,15,08,24.80
2013,05,06,15,09,24.80
2013,05,06,15,10,24.80
2013,05,06,15,11,24.80
2013,05,06,15,12,24.70
2013,05,06,15,13,24.70
2013,05,06,15,14,24.60
2013,05,06,15,15,24.60
2013,05,06,15,16,24.60
2013,05,06,15,17,24.50
2013,05,06,15,18,24.60
2013,05,06,15,19,24.60
2013,05,06,15,20,24.60
2013,05,06,15,21,24.70
2013,05,06,15,22,24.80
2013,05,06,15,23,24.90
2013,05,06,15,24,25.10
2013,05,06,15,25,25.20
2013,05,06,15,26,25.40
2013,05,06,15,27,25.50
2013,05,06,15,28,25.60
2013,05,06,15,29,25.60
2013,05,06,15,30,25.50
2013,05,06,15,31,25.40
2013,05,06,15,32,25.30
2013,05,06,15,33,25.20
2013,05,06,15,34,25.20
2013,05,06,15,35,25.10
2013,05,06,15,36,25.00
2013,05,06,15,37,24.90
2013,05,06,15,38,24.80
2013,05,06,15,39,24.80
2013,05,06,15,40,24.70
2013,05,06,15,41,24.80
2013,05,06,15,42,24.90
2013,05,06,15,43,25.00
2013,05,06,15,44,25.00
2013,05,06,15,45,25.10
2013,05,06,15,46,25.00
2013,05,06,15,47,24.90
2013,05,06,15,48,24.90
2013,05,06,15,49,24.90
2013,05,06,15,50,24.80
2013,05,06,15,51,24.70
2013,05,06,15,52,24.60
2013,05,06,15,53,24.50
2013,05,06,15,54,24.40
2013,05,06,15,55,24.30
2013,05,06,15,56,24.30
2013,05,06,15,57,24.20
2013,05,06,15,58,24.20
2013,05,06,15,59,24.10
2013,05,06,16,00,24.20
2013,05,06,16,01,24.20
2013,05,06,16,02,24.20
2013,05,06,16,03,24.20
2013,05,06,16,04,24.30
2013,05,06,16,05,24.40
2013,05,06,16,06,24.50
2013,05,06,16,07,24.50
2013,05,06,16,08,24.60
2013,05,06,16,09,24.60
2013,05,06,16,10,24.60
2013,05,06,16,11,24.60
2013,05,06,16,12,24.60
2013,05,06,16,13,24.60
2013,05,06,16,14,24.60
2013,05,06,16,15,24.60
2013,05,06,16,16,24.60
2013,05,06,16,17,24.60
2013,05,06,16,18,24.60
2013,05,06,16,19,24.60
2013,05,06,16,20,24.50
2013,05,06,16,21,24.50
2013,05,06,16,22,24.50
2013,05,06,16,23,24.60
2013,05,06,16,24,24.70
2013,05,06,16,25,24.70
2013,05,06,16,26,24.70
2013,05,06,16,27,24.70
2013,05,06,16,28,24.80
2013,05,06,16,29,24.80
2013,05,06,16,30,24.80
2013,05,06,16,31,24.80
2013,05,06,16,32,24.80
2013,05,06,16,33,24.80
2013,05,06,16,34,24.70
2013,05,06,16,35,24.70
2013,05,06,16,36,24.80
2013,05,06,16,37,24.80
2013,05,06,16,38,24.80
2013,05,06,16,39,24.90
2013,05,06,16,40,24.90
2013,05,06,16,41,24.90
2013,05,06,16,42,24.80
2013,05,06,16,43,24.80
2013,05,06,16,44,24.90
2013,05,06,16,45,25.00
2013,05,06,16,46,25.00
2013,05,06,16,47,25.10
2013,05,06,16,48,25.20
2013,05,06,16,49,25.20
2013,05,06,16,50,25.30
2013,05,06,16,51,25.40
2013,05,06,16,52,25.40
2013,05,06,16,53,25.40
2013,05,06,16,54,25.50
2013,05,06,16,55,25.40
2013,05,06,16,56,25.40
2013,05,06,16,57,25.40
2013,05,06,16,58,25.40
2013,05,06,16,59,25.40
2013,05,06,17,00,25.40
2013,05,06,17,01,25.40
2013,05,06,17,02,25.40
2013,05,06,17,03,25.40
2013,05,06,17,04,25.30
2013,05,06,17,05,25.20
2013,05,06,17,06,25.10
2013,05,06,17,07,25.00
2013,05,06,17,08,24.90
2013,05,06,17,09,24.90
2013,05,06,17,10,24.80
2013,05,06,17,11,24.90
2013,05,06,17,12,24.90
2013,05,06,17,13,25.00
2013,05,06,17,14,25.10
2013,05,06,17,15,25.20
2013,05,06,17,16,25.30
2013,05,06,17,17,25.30
2013,05,06,17,18,25.30
2013,05,06,17,19,25.30